Location: Buckland
(65.9785°N, 161.1281°W)
Time: 03:55:36
(UTC+00:00)

Transit 4A - Pass Details

Date: 03 December 2020
Orbit: 864 x 980 km, 66.8° (Epoch: 26 January)

Event Time Altitude Azimuth Distance (km) Brightness Sun altitude
Rises 01:46:55 0° 304° (NW) 3,695 11.2 -5.3°
Reaches altitude 10° 01:49:37 10° 298° (WNW) 2,741 10.6 -5.5°
Maximum altitude 01:55:34 42° 231° (SW) 1,369 9.6 -5.9°
Drops below altitude 10° 02:01:24 10° 163° (SSE) 2,687 10.7 -6.4°
Sets 02:04:02 0° 156° (SSE) 3,614 11.2 -6.6°
